Location: Hesters Ferry
(33.9426°N, 82.5501°W)
Time: 18:53:41
(UTC+00:00)

ARIANE 6 FM1 Upper Stage - Pass Details

Date: 21 June 2025
Orbit: 528 x 612 km, 62.0° (Epoch: 19 July)

Event Time Altitude Azimuth Distance (km) Brightness Sun altitude
Rises 02:06:53 0° 308° (NW) 2,748 8.1 -14.7°
Reaches altitude 10° 02:09:39 10° 289° (WNW) 1,865 6.4 -15.1°
Maximum altitude 02:12:29 18° 246° (WSW) 1,450 5.0 -15.6°
Drops below altitude 10° 02:15:21 10° 204° (SSW) 1,893 5.2 -16.0°
Enters shadow 02:16:13 - 196° (SSW) 2,141 5.4 -16.1°
